Wind_Speed
41 48 55 55 58 71 63 56 58 47 46 42 48 46 31 36 28 31 20 22 20 22 24 23 21 14 9 11 7 5 6 3 5 12 7 5 7 13 17 5 4 14 12 14
47 53 54 63 62 62 52 57 49 49 50 50 47 34 33 33 28 26 26 23 25 19 21 18 18 15 14 12 8 2 6 0 5 1 6 5 13 16 17 17 10 11 9 16
72 69 64 70 63 57 54 57 38 51 51 46 43 34 37 32 29 31 26 22 20 20 20 20 15 18 16 12 9 8 9 5 7 9 8 11 18 18 15 12 11 14 15 41
41 49 52 52 50 55 59 57 36 54 56 45 39 37 35 30 29 26 21 18 20 21 20 17 16 19 16 10 10 11 8 7 8 10 11 14 15 13 11 14 13 11 29 31
29 31 35 44 51 59 55 44 40 47 36 34 38 36 30 34 28 30 22 15 15 15 14 19 17 18 15 13 9 7 8 5 6 15 9 7 13 11 9 10 8 15 19 22
20 29 37 50 51 50 44 30 38 38 43 39 38 33 32 29 35 21 16 16 13 12 15 14 13 11 11 10 10 8 5 3 6 5 7 10 5 3 11 15 11 10 17 22
22 37 44 44 42 42 27 28 29 33 38 35 36 31 27 31 26 21 18 15 14 16 14 12 11 9 10 11 9 8 4 4 5 5 6 1 2 6 11 17 10 8 13 15
34 33 36 37 35 30 22 25 29 32 34 31 30 29 29 28 21 17 15 19 16 12 10 7 4 7 9 9 9 8 6 5 3 2 3 9 10 6 16 19 13 13 15 14
30 31 30 31 33 27 26 26 26 27 25 32 28 28 25 23 20 17 17 18 15 12 10 11 7 7 9 9 9 9 5 8 6 2 2 4 3 8 18 13 11 8 15 16
27 27 27 29 30 27 19 21 21 26 23 28 29 28 24 21 23 24 22 17 15 12 13 11 9 6 13 9 11 10 8 8 10 10 6 6 7 8 14 4 8 17 17 16
33 30 30 34 35 33 25 25 23 22 20 27 25 19 20 22 21 20 19 18 18 14 12 9 7 8 11 9 11 10 10 7 7 6 5 6 4 12 9 12 15 16 14 14
27 25 26 25 27 27 26 23 22 23 22 23 22 22 18 16 13 15 17 18 15 15 12 10 8 9 11 10 7 13 7 8 4 6 6 11 17 14 17 17 17 16 15 14
28 29 27 26 26 25 24 21 22 23 22 23 21 20 19 18 15 13 14 17 11 13 10 11 8 6 10 10 13 11 13 11 13 13 12 12 16 16 17 17 17 18 18 16
21 29 28 27 26 24 21 20 23 25 24 19 22 20 20 18 15 13 13 12 13 12 12 11 9 9 7 12 14 15 16 16 19 21 19 17 17 13 12 15 17 19 21 18
22 21 23 24 22 21 18 17 19 23 24 21 23 20 19 17 16 15 14 15 15 14 14 13 12 13 11 12 12 13 13 17 20 23 19 16 17 16 16 16 16 20 21 20
25 24 25 22 21 18 16 17 19 21 18 21 19 16 14 15 15 13 12 12 12 12 12 12 13 12 9 6 9 10 9 10 13 16 16 17 17 16 15 16 21 24 23 20
25 23 23 21 20 17 17 15 20 18 18 21 20 17 16 13 11 9 7 7 8 8 9 10 8 7 9 14 19 15 11 12 13 15 15 11 14 15 16 18 23 25 23 20
25 23 25 23 21 18 15 16 20 19 18 16 10 12 19 16 12 8 6 6 7 7 6 5 4 7 10 10 9 8 8 10 12 13 14 15 14 15 17 22 25 25 23 19
28 25 23 22 19 18 14 17 19 18 13 9 9 16 18 17 11 9 7 7 3 3 5 5 6 11 9 9 11 10 9 8 7 7 9 12 15 19 21 25 26 26 22 18
27 26 23 21 17 16 13 16 17 15 11 5 12 13 11 17 13 11 7 5 3 1 4 4 8 14 11 11 12 13 12 11 11 11 13 15 19 23 25 25 23 21 19 17
30 27 22 21 19 17 10 9 9 8 5 9 12 13 10 14 12 11 6 3 2 2 3 3 4 7 6 8 7 7 7 9 10 11 15 20 21 21 19 16 15 15 14 15
27 23 21 22 18 7 5 7 6 5 5 7 13 15 13 13 11 9 6 4 4 3 3 3 5 8 10 9 6 7 9 10 12 15 18 17 17 16 13 13 13 13 12 13
31 29 25 18 12 8 8 10 9 6 8 11 10 15 19 15 11 7 6 6 4 3 3 4 7 13 12 10 10 9 10 12 13 13 13 11 11 12 13 13 14 14 14 14
30 19 20 9 9 11 8 14 9 11 10 11 13 11 15 15 16 6 4 6 5 4 5 5 7 10 3 2 3 5 5 5 5 6 9 12 14 14 14 15 16 16 16 15
21 20 9 13 15 12 11 15 15 13 11 8 11 10 7 14 7 8 4 7 5 7 6 3 5 5 3 2 2 3 5 7 9 10 12 14 15 18 19 20 20 21 20 20
26 12 20 23 21 15 16 12 15 15 14 15 12 10 7 8 5 9 8 5 5 5 6 5 5 4 5 7 8 9 10 11 12 15 17 19 19 20 21 21 21 21 20 19
12 17 19 21 18 14 12 11 12 15 19 16 10 7 8 7 7 8 11 14 9 8 6 4 4 6 8 9 10 12 13 14 17 18 18 18 18 18 18 18 18 19 20 20
Wind_Direction
210 209 212 213 212 219 218 217 194 178 174 183 198 200 198 205 207 211 215 207 210 211 206 215 215 206 211 210 235 287 314 313 302 326 146 79 11 339 348 4 292 273 269 297
199 204 204 208 217 212 219 195 190 179 183 188 194 193 196 205 200 201 212 210 214 212 208 201 207 210 206 219 237 235 319 262 329 54 183 268 322 341 338 324 319 275 319 298
194 203 208 209 205 207 206 189 157 177 185 192 198 186 195 197 205 212 212 215 212 204 196 204 201 204 208 221 245 273 300 277 265 233 282 308 304 326 324 321 303 317 298 321
170 179 182 185 192 194 186 174 172 178 185 191 189 195 198 190 188 199 203 203 208 202 186 203 207 207 213 225 252 277 279 268 280 285 299 303 304 313 326 314 299 306 320 336
185 188 184 186 186 180 178 173 175 170 186 177 184 188 187 195 197 202 198 202 196 195 219 220 215 210 216 235 243 250 265 266 277 295 315 305 303 296 310 330 296 300 327 349
178 183 184 173 166 170 172 173 171 178 166 179 185 187 190 192 205 188 203 219 204 222 220 221 218 212 225 242 249 259 239 231 287 283 327 306 271 212 333 333 301 311 337 342
173 175 163 164 168 165 176 175 170 177 171 182 183 190 191 196 202 206 201 206 224 214 209 212 226 242 238 237 231 210 191 238 272 295 335 352 178 259 313 333 283 281 327 339
160 157 158 160 156 149 153 171 184 176 176 181 182 188 189 188 184 176 200 218 206 198 208 213 184 153 143 151 172 181 200 224 259 286 302 287 248 284 319 328 294 268 324 335
152 151 152 154 163 159 158 167 179 181 174 181 176 173 185 188 188 183 198 190 199 215 226 188 171 173 167 178 180 191 197 213 215 216 245 245 197 332 332 328 286 248 322 322
152 156 162 166 165 166 165 176 164 177 173 169 178 180 177 188 206 200 195 208 213 210 198 180 171 161 174 174 187 190 198 211 221 227 235 267 265 306 326 315 308 304 315 318
168 163 168 170 173 174 168 167 163 166 161 169 171 181 194 194 196 196 201 200 212 212 197 187 166 168 184 188 187 195 200 203 207 207 226 265 276 312 324 316 319 319 319 318
152 155 164 160 158 165 174 181 181 188 179 171 176 180 184 194 205 211 208 205 205 196 188 185 180 171 185 195 203 214 228 226 223 221 240 286 301 291 307 310 326 338 331 326
177 177 161 164 169 173 180 178 181 186 179 184 181 178 192 203 204 201 199 201 192 198 183 174 172 173 196 195 218 228 232 239 253 265 262 274 297 299 303 303 313 331 334 328
152 167 163 166 172 178 179 185 187 178 171 169 181 192 195 199 207 212 208 206 211 207 206 211 208 207 228 229 237 237 244 256 258 259 265 284 294 297 307 303 310 321 326 323
150 148 162 156 157 172 164 167 175 177 180 186 181 192 200 209 215 218 220 220 222 223 222 228 231 237 243 246 250 258 265 265 262 270 274 275 278 287 305 307 312 317 319 317
144 150 143 140 145 153 161 159 162 168 180 166 151 168 174 190 196 204 207 215 225 230 229 231 238 238 225 248 259 283 284 269 272 269 268 262 275 285 302 303 312 315 315 313
144 142 146 151 151 150 149 152 153 155 154 156 144 147 161 167 183 185 182 190 202 204 204 208 215 209 231 257 271 302 282 266 264 260 256 267 289 284 291 302 312 312 314 311
155 155 157 157 155 155 148 153 160 161 161 153 147 158 171 183 184 184 192 175 171 177 177 171 200 232 251 268 299 305 270 268 269 262 260 274 286 287 293 304 310 309 310 308
169 161 156 155 157 156 150 158 163 166 164 161 164 164 177 186 181 181 170 168 181 208 239 242 239 244 239 275 293 298 293 274 269 260 264 278 286 290 298 304 306 308 306 304
166 158 157 161 156 155 147 154 172 177 182 142 156 162 163 173 175 171 148 163 199 284 224 238 248 266 284 291 288 286 280 277 272 273 282 293 298 300 304 304 305 302 303 306
171 161 167 159 155 148 134 138 156 172 171 176 164 165 152 169 177 169 160 157 184 224 226 226 255 282 324 309 286 289 279 269 276 281 291 300 301 303 303 305 310 312 311 309
193 193 171 161 156 146 145 153 165 167 175 161 177 178 171 165 169 172 189 188 209 208 192 243 251 302 310 299 286 269 276 278 284 290 292 293 297 302 306 313 318 320 319 315
175 174 162 163 163 163 170 176 179 172 149 158 166 182 190 179 170 167 179 199 202 200 224 247 277 311 291 284 282 278 282 284 288 290 294 295 296 300 306 310 313 315 315 313
178 165 155 164 179 185 184 193 166 154 146 157 168 165 186 187 187 171 197 196 192 217 233 249 297 338 316 264 291 288 282 286 289 298 302 302 303 305 309 313 314 313 311 309
168 177 164 174 176 188 194 182 163 167 170 153 155 168 179 172 170 191 188 183 214 215 230 250 301 326 337 357 341 309 295 293 299 306 309 308 303 302 304 306 306 306 307 307
173 159 171 185 184 187 180 164 170 182 171 159 160 168 164 186 194 183 199 196 209 220 190 264 283 290 301 305 306 306 302 296 300 308 311 308 305 305 305 305 305 306 306 305
131 161 163 168 175 172 177 187 188 188 183 185 173 184 181 184 206 204 205 217 235 229 247 249 274 281 283 289 297 300 299 299 302 304 306 308 308 308 307 306 308 310 311 313
Height
2838 2855 2873 2887 2900 2913 2925 2934 2947 2957 2968 2981 2985 2987 3000 3008 3012 3017 3022 3025 3028 3034 3037 3042 3045 3044 3048 3050 3051 3050 3051 3052 3052 3052 3052 3052 3053 3053 3051 3048 3046 3043 3037 3019
2844 2855 2865 2879 2893 2906 2916 2928 2936 2950 2963 2970 2975 2985 2996 3003 3007 3014 3018 3023 3026 3030 3035 3040 3043 3043 3045 3046 3048 3048 3048 3050 3051 3050 3053 3051 3051 3051 3049 3046 3042 3040 3038 3019
2841 2851 2862 2875 2881 2899 2911 2921 2935 2953 2959 2964 2973 2980 2988 2996 3005 3012 3015 3021 3025 3026 3031 3036 3039 3041 3043 3043 3044 3045 3046 3047 3048 3049 3048 3049 3047 3046 3044 3043 3041 3037 3033 3019
2849 2856 2859 2874 2885 2894 2904 2917 2929 2929 2945 2958 2969 2978 2986 2994 3002 3006 3011 3017 3021 3021 3028 3032 3036 3038 3041 3042 3041 3042 3042 3043 3043 3044 3044 3044 3043 3042 3041 3039 3038 3035 3028 3020
2858 2866 2871 2879 2885 2893 2904 2913 2922 2931 2947 2959 2968 2977 2983 2992 2996 3005 3007 3015 3017 3021 3025 3029 3031 3035 3038 3039 3039 3038 3039 3040 3041 3039 3041 3041 3039 3038 3040 3036 3034 3031 3027 3020
2861 2865 2871 2879 2887 2895 2905 2917 2925 2938 2947 2957 2968 2973 2981 2989 3000 3000 3007 3011 3017 3020 3024 3026 3029 3032 3034 3035 3035 3036 3037 3038 3039 3035 3036 3036 3036 3036 3037 3033 3030 3029 3024 3019
2865 2869 2876 2884 2892 2902 2911 2920 2931 2940 2949 2959 2966 2974 2983 2991 2994 2997 3005 3010 3014 3019 3021 3024 3026 3027 3029 3030 3031 3033 3034 3037 3038 3034 3033 3037 3034 3034 3034 3030 3026 3026 3024 3018
2870 2877 2884 2892 2902 2911 2921 2928 2935 2941 2950 2959 2968 2975 2980 2987 2992 2996 3003 3009 3013 3016 3019 3021 3022 3025 3027 3029 3031 3032 3033 3034 3035 3034 3034 3034 3031 3033 3031 3027 3024 3022 3021 3017
2877 2883 2891 2899 2908 2915 2924 2931 2937 2944 2952 2960 2966 2972 2980 2983 2991 2997 3003 3008 3011 3014 3016 3017 3018 3022 3024 3028 3030 3030 3031 3033 3035 3033 3034 3033 3029 3029 3026 3023 3020 3019 3019 3015
2885 2891 2898 2905 2912 2920 2927 2933 2939 2945 2951 2959 2966 2971 2977 2984 2990 2996 3000 3005 3008 3011 3011 3013 3016 3018 3021 3023 3025 3027 3029 3030 3030 3030 3031 3029 3028 3028 3025 3025 3026 3019 3016 3013
2890 2896 2902 2909 2916 2923 2930 2936 2942 2948 2954 2962 2967 2973 2979 2983 2988 2993 2998 3003 3005 3007 3009 3011 3012 3015 3018 3021 3022 3024 3027 3027 3027 3027 3029 3027 3025 3025 3026 3024 3019 3015 3012 3010
2894 2900 2906 2911 2918 2925 2932 2938 2943 2949 2958 2963 2968 2974 2979 2984 2988 2992 2995 2999 3000 3002 3005 3007 3010 3013 3016 3018 3021 3022 3025 3025 3024 3026 3024 3023 3021 3021 3020 3018 3016 3012 3009 3006
2896 2902 2909 2916 2922 2928 2934 2939 2945 2951 2957 2964 2969 2974 2979 2983 2987 2989 2992 2995 2999 3001 3004 3006 3008 3012 3014 3016 3018 3019 3020 3021 3020 3022 3021 3019 3019 3018 3017 3015 3013 3010 3007 3003
2899 2905 2912 2918 2925 2929 2935 2940 2945 2951 2957 2962 2969 2973 2978 2982 2985 2988 2991 2994 2997 3000 3002 3004 3006 3010 3012 3013 3015 3015 3017 3018 3016 3016 3017 3016 3016 3015 3014 3012 3009 3007 3004 3001
2904 2909 2914 2920 2926 2932 2935 2940 2945 2951 2959 2962 2967 2972 2977 2980 2983 2985 2988 2991 2994 2996 2999 3001 3004 3006 3009 3009 3010 3009 3012 3012 3012 3011 3012 3012 3012 3012 3010 3008 3006 3004 3001 2997
2908 2914 2918 2923 2929 2934 2939 2943 2947 2951 2956 2960 2966 2972 2975 2978 2981 2983 2986 2988 2991 2993 2995 2998 3001 3004 3006 3005 3004 3006 3008 3008 3007 3007 3007 3007 3008 3008 3006 3005 3003 3001 2997 2994
2913 2918 2923 2928 2932 2937 2941 2945 2949 2952 2956 2960 2966 2971 2975 2977 2980 2982 2985 2987 2989 2991 2993 2995 2998 3001 3002 3001 3000 3003 3003 3003 3003 3002 3003 3004 3004 3003 3002 3001 2999 2996 2993 2989
2915 2920 2925 2930 2935 2939 2943 2946 2950 2954 2959 2962 2965 2970 2975 2977 2979 2982 2984 2986 2989 2991 2993 2995 2996 2998 2998 2997 2997 2998 2998 2998 2998 2998 2999 2999 2999 2999 2998 2997 2994 2991 2988 2985
2916 2922 2928 2933 2937 2941 2944 2947 2952 2956 2961 2961 2964 2967 2972 2976 2979 2982 2984 2986 2988 2991 2991 2993 2995 2995 2994 2994 2994 2994 2995 2995 2995 2995 2996 2996 2996 2995 2993 2992 2989 2986 2982 2980
2919 2925 2930 2935 2939 2943 2947 2951 2954 2958 2960 2962 2964 2968 2970 2975 2978 2982 2985 2986 2988 2989 2991 2991 2991 2990 2990 2990 2990 2990 2991 2991 2991 2992 2992 2992 2991 2989 2987 2985 2983 2980 2977 2975
2919 2925 2931 2937 2941 2946 2949 2953 2956 2959 2961 2963 2966 2969 2971 2976 2979 2981 2984 2985 2987 2989 2991 2990 2988 2986 2987 2987 2987 2987 2987 2988 2988 2988 2988 2987 2986 2984 2983 2981 2979 2976 2974 2972
2921 2928 2934 2940 2944 2948 2951 2953 2955 2957 2960 2962 2965 2970 2972 2976 2979 2982 2985 2986 2987 2988 2988 2988 2984 2984 2984 2984 2984 2984 2984 2985 2985 2985 2984 2983 2982 2981 2979 2977 2976 2974 2972 2970
2922 2929 2934 2939 2944 2947 2949 2950 2953 2955 2958 2962 2964 2968 2971 2975 2979 2981 2983 2984 2986 2986 2986 2984 2982 2981 2980 2980 2981 2981 2982 2982 2981 2981 2980 2979 2979 2977 2976 2974 2973 2971 2969 2968
2923 2927 2933 2938 2942 2944 2946 2949 2953 2957 2959 2961 2964 2967 2970 2973 2977 2980 2981 2983 2984 2984 2983 2980 2980 2979 2977 2978 2979 2979 2979 2979 2979 2978 2977 2977 2975 2974 2973 2971 2969 2968 2966 2964
2923 2929 2932 2936 2939 2942 2946 2948 2953 2956 2958 2961 2964 2968 2971 2973 2976 2977 2979 2980 2980 2979 2978 2978 2978 2978 2978 2978 2979 2979 2978 2978 2977 2976 2975 2974 2972 2971 2969 2967 2965 2963 2961 2960
2923 2927 2930 2935 2939 2943 2946 2949 2953 2956 2958 2961 2965 2967 2969 2971 2972 2973 2974 2975 2975 2976 2976 2977 2977 2977 2978 2978 2978 2977 2977 2976 2975 2973 2972 2970 2968 2966 2964 2962 2960 2958 2957 2955
2921 2927 2931 2934 2940 2944 2947 2949 2952 2955 2958 2960 2963 2965 2967 2968 2969 2969 2970 2971 2974 2974 2975 2975 2976 2976 2976 2976 2976 2975 2974 2973 2971 2969 2968 2966 2964 2962 2960 2958 2956 2954 2952 2950